Location: Newark
(16.3678°N, 77.8722°E)
Time: 21:11:31
(UTC+00:00)

S-56A Canister/Altair - All Passes

Search period start: 10 December 2019 00:00
Search period end: 20 December 2019 00:00
Orbit: 633 x 2499 km, 38.9° (Epoch: 10 December)

Date Brightness Start Highest point End Pass type
(mag) Time Alt. Az. Time Alt. Az. Time Alt. Az.
10 Dec - 01:49:41 10° SSW 01:59:54 51° SE 02:13:36 10° ENE daylight
10 Dec - 03:53:45 10° WSW 04:06:13 64° NNW 04:21:20 10° NE daylight
10 Dec - 06:02:45 10° WNW 06:15:23 33° NNW 06:27:59 10° NE daylight
10 Dec - 08:14:12 10° NW 08:26:05 27° N 08:36:07 10° ENE daylight
10 Dec - 10:22:55 10° NW 10:35:24 43° NNE 10:44:12 10° E daylight
10 Dec - 12:30:17 10° WNW 12:41:28 69° SW 12:48:42 10° SE visible
11 Dec - 01:17:21 10° SSW 01:26:43 43° SE 01:39:28 10° ENE daylight
11 Dec - 03:20:39 10° WSW 03:32:31 70° NW 03:47:41 10° NE daylight
11 Dec - 05:28:52 10° W 05:41:22 35° NNW 05:54:30 10° NE daylight
11 Dec - 07:40:04 10° NW 07:52:07 28° N 08:02:42 10° NE daylight
11 Dec - 09:49:04 10° NW 10:01:52 40° NNE 10:11:13 10° E daylight
11 Dec - 11:56:26 10° NW 12:08:31 81° SW 12:16:19 10° SE daylight
11 Dec - 14:07:19 10° W 14:11:51 15° SW 14:15:39 10° SSW visible
12 Dec - 00:45:08 10° SSW 00:53:40 36° SE 01:05:12 10° ENE visible
12 Dec - 02:47:41 10° WSW 02:58:55 77° NW 03:13:59 10° NE daylight
12 Dec - 04:55:09 10° W 05:07:24 37° NNW 05:20:55 10° NE daylight
12 Dec - 07:05:59 10° NW 07:18:05 28° N 07:29:10 10° NE daylight
12 Dec - 09:15:12 10° NW 09:28:14 38° NNE 09:38:08 10° E daylight
12 Dec - 11:22:36 10° NW 11:35:26 89° NE 11:43:50 10° SE daylight
12 Dec - 13:32:26 10° W 13:39:12 20° SW 13:44:26 10° S visible
13 Dec - 00:13:07 10° S 00:20:41 29° SE 00:30:47 10° ENE visible
13 Dec - 02:14:51 10° SW 02:25:26 85° NW 02:40:12 10° NE daylight
13 Dec - 04:21:34 10° W 04:33:28 40° NNW 04:47:17 10° NE daylight
13 Dec - 06:31:59 10° NW 06:44:01 28° N 06:55:33 10° NE daylight
13 Dec - 08:41:20 10° NW 08:54:29 36° NNE 09:04:55 10° E daylight
13 Dec - 10:48:44 10° NW 11:02:14 79° NE 11:11:14 10° ESE daylight
13 Dec - 12:57:56 10° WNW 13:06:29 27° SW 13:12:47 10° S visible
13 Dec - 23:41:21 10° S 23:47:49 23° SE 23:56:10 10° E visible
14 Dec - 01:42:09 10° SW 01:52:03 87° SE 02:06:21 10° NE daylight
14 Dec - 03:48:09 10° W 03:59:37 42° NNW 04:13:35 10° NE daylight
14 Dec - 05:58:03 10° WNW 06:09:56 28° N 06:21:51 10° NE daylight
14 Dec - 08:07:29 10° NW 08:20:39 35° NNE 08:31:34 10° ENE daylight
14 Dec - 10:14:55 10° NW 10:28:55 72° NE 10:38:32 10° ESE daylight
14 Dec - 12:23:37 10° WNW 12:33:42 34° SW 12:40:52 10° SSE visible
14 Dec - 23:09:56 10° SSE 23:15:00 17° SE 23:21:14 10° E visible
15 Dec - 01:09:34 10° SW 01:18:49 77° SE 01:32:28 10° NE daylight
15 Dec - 03:14:52 10° W 03:25:50 45° NNW 03:39:51 10° NE daylight
15 Dec - 05:24:13 10° WNW 05:35:51 29° N 05:48:03 10° NE daylight
15 Dec - 07:33:40 10° NW 07:46:44 33° NNE 07:58:05 10° ENE daylight
15 Dec - 09:41:07 10° NW 09:55:28 65° NNE 10:05:44 10° ESE daylight
15 Dec - 11:49:23 10° WNW 12:00:49 42° SW 12:08:47 10° SSE daylight
15 Dec - 22:39:22 10° SE 22:42:15 12° SE 22:45:30 10° ESE visible
16 Dec - 00:37:06 10° SW 00:45:41 67° SE 00:58:32 10° ENE visible
16 Dec - 02:41:44 10° W 02:52:09 48° NNW 03:06:04 10° NE daylight
16 Dec - 04:50:30 10° WNW 05:01:48 29° N 05:14:12 10° NE daylight
16 Dec - 06:59:54 10° NW 07:12:46 32° NNE 07:24:27 10° ENE daylight
16 Dec - 09:07:21 10° NW 09:21:55 60° NNE 09:32:48 10° ESE daylight
16 Dec - 11:15:16 10° WNW 11:27:50 51° SW 11:36:33 10° SSE daylight
17 Dec - 00:04:45 10° SSW 00:12:41 57° SE 00:24:34 10° ENE visible
17 Dec - 02:08:44 10° WSW 02:18:33 52° NNW 02:32:16 10° NE daylight
17 Dec - 04:16:54 10° WNW 04:27:47 30° N 04:40:17 10° NE daylight
17 Dec - 06:26:12 10° NW 06:38:44 31° NNE 06:50:42 10° ENE daylight
17 Dec - 08:33:37 10° NW 08:48:16 55° NNE 08:59:44 10° ESE daylight
17 Dec - 10:41:13 10° WNW 10:54:44 60° SW 11:04:12 10° SSE daylight
17 Dec - 12:55:57 10° WSW 12:58:27 11° SW 13:00:46 10° SW visible
17 Dec - 23:32:31 10° SSW 23:39:46 47° SE 23:50:33 10° ENE visible
18 Dec - 01:35:51 10° WSW 01:45:05 57° NNW 01:58:28 10° NE daylight
18 Dec - 03:43:25 10° WNW 03:53:51 31° N 04:06:20 10° NE daylight
18 Dec - 05:52:33 10° NW 06:04:41 30° N 06:16:48 10° ENE daylight
18 Dec - 07:59:56 10° NW 08:14:32 51° NNE 08:26:30 10° E daylight
18 Dec - 10:07:15 10° WNW 10:21:31 69° SW 10:31:42 10° SE daylight
18 Dec - 12:19:26 10° W 12:25:35 16° SW 12:30:47 10° SSW daylight
18 Dec - 23:00:25 10° SSW 23:06:59 38° SE 23:16:29 10° ENE visible
19 Dec - 01:03:04 10° WSW 01:11:43 62° NNW 01:24:40 10° NE daylight
19 Dec - 03:10:04 10° WNW 03:19:59 31° NNW 03:32:22 10° NE daylight
19 Dec - 05:18:59 10° NW 05:30:36 29° N 05:42:47 10° ENE daylight
19 Dec - 07:26:20 10° NW 07:40:42 47° NNE 07:53:08 10° E daylight
19 Dec - 09:33:21 10° NW 09:48:11 78° SW 09:59:04 10° SE daylight
19 Dec - 11:44:11 10° W 11:52:40 21° SW 11:59:29 10° S daylight
19 Dec - 22:28:27 10° S 22:34:17 29° SE 22:42:22 10° ENE visible
